Regional Weather Roundup
Issued by NWS

Home | Current Version | Previous Version | Graphics & Text | Print | Product List | Glossary On
Versions: 1 2 3 4 5 6 7 8 9 10 11 12 13 14 15 16 17 18 19 20 21 22 23 24 25 26 27 28 29 30 31 32 33 34 35 36 37 38 39 40 41 42 43 44 45 46 47 48 49 50
000
ASUS43 KLMK 260710
RWRKY
KENTUCKY REGIONAL WEATHER ROUNDUP
NATIONAL WEATHER SERVICE LOUISVILLE KY
300 AM EDT SUN APR 26 2015

NOTE "FAIR" INDICATES FEW OR NO CLOUDS BELOW 12,000 FEET
WITH NO SIGNIFICANT WEATHER AND/OR OBSTRUCTIONS TO VISIBILITY.

KYZ001>023-026-027-061>063-070>075-260800-
WESTERN AND SOUTH CENTRAL KENTUCKY

CITY           SKY/WX    TMP DP  RH WIND       PRES   REMARKS
PADUCAH        CLOUDY    57  54  89 N12       29.67R
HENDERSON      CLOUDY    50  45  81 NE15      29.70R
OWENSBORO      CLOUDY    50  48  92 NE8       29.70R
HOPKINSVILLE   CLOUDY    61  59  94 NW6       29.63R
BOWLING GREEN  LGT RAIN  60  57  89 N9        29.63R
GLASGOW        LGT RAIN  54  54 100 N9        29.63R
$$

KYZ024-025-028>034-038-045-046-053-260800-
NORTH CENTRAL KENTUCKY

CITY           SKY/WX    TMP DP  RH WIND       PRES   REMARKS
LOUISVILLE/SDF DRIZZLE   47  44  90 N13       29.69S
LOUISVILLE/LOU CLOUDY    46  43  89 NE9       29.70R
FORT KNOX      CLOUDY    46  44  93 NE10      29.66S FOG
$$

KYZ035>037-039>044-047>052-055>060-089>105-260800-
NORTHEAST KENTUCKY

CITY           SKY/WX    TMP DP  RH WIND       PRES   REMARKS
LEXINGTON      CLOUDY    45  42  89 NE12      29.65S
COVINGTON      CLOUDY    45  40  82 N13       29.71R
FRANKFORT      LGT RAIN  45  42  89 N9        29.66S
$$

KYZ054-064>069-076>088-106>120-260800-
SOUTHEAST KENTUCKY

CITY           SKY/WX    TMP DP  RH WIND       PRES   REMARKS
JACKSON        FOG       47  46  97 CALM      29.60S VSB 1/4
LONDON         CLOUDY    55  51  86 N5        29.59R
SOMERSET       CLOUDY    54  54 100 N7        29.61S
MIDDLESBORO    CLOUDY    57  57 100 CALM      29.59R
MONTICELLO     CLOUDY    58  58 100 NW6       29.62S
$$




USA.gov is the U.S. government's official web portal to all federal, state and local government web resources and services.